This demonstration page uses our WeatherBlox Daily Observations layout. Learn more.

Left ArrowRight Arrow

Hourly Observations for August 12, 2022

Temp ( °F °C ) Dew Point ( °F °C ) Humidity (%) Winds ( mph kmh ) Pressure ( in mb ) Visibility ( mi km ) Precip ( " mm )
12:53 am 00:53 Clear 72 22.2 67 19.4 84 84 N 9 15 29.97 1015 10 16 0.00 0.00
1:53 am 01:53 Clear 73 22.8 66 18.9 79 79 NNW 7 11 29.97 1015 10 16 0.00 0.00
2:53 am 02:53 Clear 73 22.8 66 18.9 79 79 WNW 3 6 29.97 1015 10 16 0.00 0.00
3:53 am 03:53 Clear 72 22.2 66 18.9 82 82 WNW 3 6 29.96 1015 10 16 0.00 0.00
4:53 am 04:53 Clear 72 22.2 66 18.9 82 82 N 6 9 29.97 1015 10 16 0.00 0.00
5:53 am 05:53 Clear 71 21.7 65 18.3 81 81 Calm 29.97 1015 10 16 0.00 0.00
6:53 am 06:53 Clear 69 20.6 65 18.3 87 87 Calm 30.00 1016 10 16 0.00 0.00
7:53 am 07:53 Sunny 69 20.6 66 18.9 90 90 N 6 9 30.01 1016 8 13 0.00 0.00
8:53 am 08:53 Sunny 73 22.8 64 17.8 73 73 NW 6 9 30.03 1017 10 16 0.00 0.00
9:53 am 09:53 Sunny 77 25 64 17.8 64 64 Calm 30.03 1017 10 16 0.00 0.00
10:53 am 10:53 Sunny 82 27.8 62 16.7 51 51 Calm 30.02 1017 10 16 0.00 0.00
11:53 am 11:53 Sunny 85 29.4 60 15.6 43 43 Calm 30.01 1016 10 16 0.00 0.00
12:53 pm 12:53 Sunny 88 31.1 58 14.4 36 36 Calm 29.99 1016 10 16 0.00 0.00
1:53 pm 13:53 Sunny 91 32.8 58 14.4 33 33 VRB 6 9 29.96 1015 10 16 0.00 0.00
2:53 pm 14:53 Partly Cloudy 93 33.9 56 13.3 29 29 E 3 6 29.93 1014 10 16 0.00 0.00
3:53 pm 15:53 Mostly Cloudy 93 33.9 55 12.8 28 28 VRB 5 7 29.90 1013 10 16 0.00 0.00
4:53 pm 16:53 Sunny 94 34.4 52 11.1 24 24 VRB 5 7 29.88 1012 10 16 0.00 0.00
5:53 pm 17:53 Mostly Cloudy 98 36.7 46 7.8 17 17 E 14 22 29.85 1011 10 16 0.00 0.00
6:53 pm 18:53 Sunny 95 35 43 6.1 17 17 E 9 15 29.85 1011 10 16 0.00 0.00
7:53 pm 19:53 Sunny 94 34.4 42 5.6 17 17 ENE 13 20 29.85 1011 10 16 0.00 0.00
8:53 pm 20:53 Clear 90 32.2 39 3.9 17 17 E 10 17 29.88 1012 10 16 0.00 0.00
9:53 pm 21:53 Clear 87 30.6 36 2.2 16 16 E 10 17 29.90 1013 10 16 0.00 0.00
10:53 pm 22:53 Clear 84 28.9 37 2.8 19 19 E 9 15 29.92 1013 10 16 0.00 0.00
11:53 pm 23:53 Clear 81 27.2 40 4.4 23 23 ENE 9 15 29.93 1013 10 16 0.00 0.00

Powered by AerisWeather